{"data":{"norad_id":27954,"epoch":"2026-09-19T15:25:30.347040Z","epoch_age_seconds":92412,"freshness":"FRESH","line1":"1 27954U 03044A   26262.64271235  .00000129  00000+0  00000+0 0  9996","line2":"2 27954   1.6567  82.5109 0001661 104.2810 253.1303  1.00271250 47511","mean_motion":1.0027125,"eccentricity":0.0001661,"inclination_deg":1.6567,"raan_deg":82.5109,"arg_perigee_deg":104.281,"mean_anomaly_deg":253.1303,"bstar":0,"rev_number":4751,"period_min":1436.1045663637,"perigee_km":35779.741354888,"apogee_km":35793.748528669,"semimajor_km":42164.881941779,"source":"CELESTRAK","updated_at":"2026-09-20T09:00:35.514956Z"}}